Location: Palo Alto
(37.4420°N, 122.1420°W)
Time: 04:37:32
(UTC-07:00)

ARGOS - Visible Passes

Search period start: 01 July 2016 00:00
Search period end: 11 July 2016 00:00
Orbit: 820 x 835 km, 98.7° (Epoch: 30 June)

Date Brightness Start Highest point End Pass type
(mag) Time Alt. Az. Time Alt. Az. Time Alt. Az.
01 Jul 4.6 21:26:16 11° ESE 21:30:08 22° ENE 21:34:12 10° NNE visible
01 Jul 3.9 23:07:47 29° SSW 23:10:03 44° W 23:15:11 10° NNW visible
02 Jul 5.0 21:08:49 10° E 21:11:50 15° ENE 21:14:51 10° NNE visible
02 Jul 3.3 22:49:02 33° S 22:51:28 67° WSW 22:56:50 10° NNW visible
03 Jul 3.1 22:30:16 31° SSE 22:32:55 83° ENE 22:38:20 10° NNW visible
04 Jul 5.6 00:12:48 10° W 00:13:44 10° W 00:14:41 10° W visible
04 Jul 3.4 22:11:31 26° SE 22:14:27 56° ENE 22:19:42 10° N visible
04 Jul 5.2 23:53:02 14° WSW 23:54:59 17° W 23:58:21 10° NW visible
05 Jul 3.9 21:52:46 19° SE 21:56:01 38° ENE 22:00:56 10° N visible
05 Jul 4.8 23:34:17 20° SW 23:36:17 25° W 23:40:40 10° NW visible
06 Jul 4.4 21:34:01 13° ESE 21:37:37 26° ENE 21:42:00 10° NNE visible
06 Jul 4.2 23:15:32 27° SW 23:17:38 37° W 23:22:36 10° NNW visible
07 Jul 4.8 21:15:47 10° ESE 21:19:17 18° ENE 21:22:48 10° NNE visible
07 Jul 3.6 22:56:47 33° SSW 22:59:02 56° W 23:04:19 10° NNW visible
08 Jul 5.2 20:59:01 10° E 21:01:01 12° ENE 21:03:00 10° NE visible
08 Jul 3.1 22:38:02 34° S 22:40:29 84° WSW 22:45:54 10° NNW visible
09 Jul 3.2 22:19:18 30° SSE 22:21:59 66° ENE 22:27:19 10° N visible
10 Jul 5.4 00:00:48 12° WSW 00:02:38 14° W 00:05:18 10° WNW visible
10 Jul 3.7 22:00:33 23° SE 22:03:31 44° ENE 22:08:36 10° N visible
10 Jul 5.0 23:42:04 18° WSW 23:43:54 21° W 23:47:56 10° NW visible
